Time,TemperatureF,DewpointF,PressureIn,WindDirection,WindDirectionDegrees,WindSpeedMPH,WindSpeedGustMPH,Humidity,HourlyPrecipIn,Conditions,Clouds,dailyrainin,SoftwareType,DateUTC
2013-01-23 00:00:00,53.1,48.1,30.21,SSE,165,6.0,6.0,83,0.00,,,0.00,Wunderground v.1.15,2013-01-23 06:00:00,
2013-01-23 00:10:00,53.3,48.3,30.20,South,184,6.0,7.0,83,0.00,,,0.00,Wunderground v.1.15,2013-01-23 06:10:00,
2013-01-23 00:15:00,53.3,48.3,30.21,SSE,150,5.0,7.0,83,0.00,,,0.00,Wunderground v.1.15,2013-01-23 06:15:00,
2013-01-23 00:20:00,53.4,48.4,30.20,South,190,5.0,9.0,83,0.00,,,0.00,Wunderground v.1.15,2013-01-23 06:20:00,
2013-01-23 00:25:00,53.5,48.1,30.20,South,171,5.0,9.0,82,0.00,,,0.00,Wunderground v.1.15,2013-01-23 06:25:00,
2013-01-23 00:30:00,53.5,48.1,30.20,South,180,5.0,5.0,82,0.00,,,0.00,Wunderground v.1.15,2013-01-23 06:30:00,
2013-01-23 00:40:00,53.3,47.9,30.20,South,173,5.0,6.0,82,0.00,,,0.00,Wunderground v.1.15,2013-01-23 06:40:00,
2013-01-23 00:45:00,53.2,47.8,30.20,SSE,159,6.0,7.0,82,0.00,,,0.00,Wunderground v.1.15,2013-01-23 06:45:00,
2013-01-23 00:50:00,53.1,47.7,30.20,South,173,6.0,7.0,82,0.00,,,0.00,Wunderground v.1.15,2013-01-23 06:50:00,
2013-01-23 01:00:00,53.0,48.0,30.20,South,172,6.0,8.0,83,0.00,,,0.00,Wunderground v.1.15,2013-01-23 07:00:00,
2013-01-23 01:10:00,53.0,48.0,30.19,SSW,195,6.0,6.0,83,0.00,,,0.00,Wunderground v.1.15,2013-01-23 07:10:00,
2013-01-23 01:20:00,53.3,48.3,30.20,South,185,8.0,8.0,83,0.00,,,0.00,Wunderground v.1.15,2013-01-23 07:20:00,
2013-01-23 01:25:00,53.3,47.9,30.20,SSW,192,8.0,8.0,82,0.00,,,0.00,Wunderground v.1.15,2013-01-23 07:25:00,
2013-01-23 01:30:00,53.3,47.9,30.20,SSW,192,8.0,8.0,82,0.00,,,0.00,Wunderground v.1.15,2013-01-23 07:30:00,
2013-01-23 01:35:00,53.2,47.8,30.20,SSW,200,7.0,8.0,82,0.00,,,0.00,Wunderground v.1.15,2013-01-23 07:35:00,
2013-01-23 01:45:00,53.1,48.1,30.20,SSW,198,6.0,7.0,83,0.00,,,0.00,Wunderground v.1.15,2013-01-23 07:45:00,
2013-01-23 01:50:00,53.0,48.0,30.20,SSW,198,6.0,8.0,83,0.00,,,0.00,Wunderground v.1.15,2013-01-23 07:50:00,
2013-01-23 01:55:00,53.0,48.0,30.20,SSW,195,6.0,8.0,83,0.00,,,0.00,Wunderground v.1.15,2013-01-23 07:55:00,
2013-01-23 02:00:00,53.0,48.0,30.20,South,188,6.0,8.0,83,0.00,,,0.00,Wunderground v.1.15,2013-01-23 08:00:00,
2013-01-23 02:10:00,53.0,48.0,30.20,SSW,205,5.0,5.0,83,0.00,,,0.00,Wunderground v.1.15,2013-01-23 08:10:00,
2013-01-23 02:15:00,53.0,48.3,30.20,SSW,201,5.0,5.0,84,0.00,,,0.00,Wunderground v.1.15,2013-01-23 08:15:00,
2013-01-23 02:20:00,53.0,48.3,30.20,SSW,199,5.0,7.0,84,0.00,,,0.00,Wunderground v.1.15,2013-01-23 08:20:00,
2013-01-23 02:30:00,53.3,48.6,30.20,SSW,194,5.0,5.0,84,0.00,,,0.00,Wunderground v.1.15,2013-01-23 08:30:00,
2013-01-23 02:35:00,53.6,48.6,30.20,SSW,196,5.0,5.0,83,0.00,,,0.00,Wunderground v.1.15,2013-01-23 08:35:00,
2013-01-23 02:40:00,53.8,48.8,30.20,SSW,212,5.0,6.0,83,0.00,,,0.00,Wunderground v.1.15,2013-01-23 08:40:00,
2013-01-23 02:50:00,54.2,49.1,30.21,South,189,6.0,6.0,83,0.00,,,0.00,Wunderground v.1.15,2013-01-23 08:50:00,
2013-01-23 02:55:00,54.4,49.3,30.21,SSW,202,6.0,6.0,83,0.00,,,0.00,Wunderground v.1.15,2013-01-23 08:55:00,
2013-01-23 03:00:00,54.5,49.1,30.21,South,183,6.0,6.0,82,0.00,,,0.00,Wunderground v.1.15,2013-01-23 09:00:00,
2013-01-23 03:10:00,54.8,49.4,30.21,SSW,209,6.0,6.0,82,0.00,,,0.00,Wunderground v.1.15,2013-01-23 09:10:00,
2013-01-23 03:15:00,54.9,49.2,30.21,SSW,209,5.0,10.0,81,0.00,,,0.00,Wunderground v.1.15,2013-01-23 09:15:00,
2013-01-23 03:20:00,55.0,49.3,30.21,SSW,211,6.0,6.0,81,0.00,,,0.00,Wunderground v.1.15,2013-01-23 09:20:00,
2013-01-23 03:25:00,55.0,49.3,30.21,SSW,197,6.0,6.0,81,0.00,,,0.00,Wunderground v.1.15,2013-01-23 09:25:00,
2013-01-23 03:35:00,55.0,49.3,30.21,SSW,195,6.0,6.0,81,0.00,,,0.00,Wunderground v.1.15,2013-01-23 09:35:00,
2013-01-23 03:40:00,54.9,49.2,30.21,SSW,209,6.0,6.0,81,0.00,,,0.00,Wunderground v.1.15,2013-01-23 09:40:00,
2013-01-23 03:45:00,54.9,49.2,30.21,SSW,204,6.0,6.0,81,0.00,,,0.00,Wunderground v.1.15,2013-01-23 09:45:00,
2013-01-23 03:50:00,54.8,49.1,30.21,SSW,197,5.0,7.0,81,0.00,,,0.00,Wunderground v.1.15,2013-01-23 09:50:00,
2013-01-23 03:55:00,54.8,49.1,30.21,SSW,203,6.0,10.0,81,0.00,,,0.00,Wunderground v.1.15,2013-01-23 09:55:00,
2013-01-23 04:00:00,54.7,49.3,30.21,SSW,193,6.0,6.0,82,0.00,,,0.00,Wunderground v.1.15,2013-01-23 10:00:00,
2013-01-23 04:10:00,54.6,49.2,30.21,SSW,211,6.0,6.0,82,0.00,,,0.00,Wunderground v.1.15,2013-01-23 10:10:00,
2013-01-23 04:20:00,54.5,49.1,30.21,SSW,209,5.0,5.0,82,0.00,,,0.00,Wunderground v.1.15,2013-01-23 10:20:00,
2013-01-23 04:25:00,54.4,49.0,30.22,SW,216,4.0,5.0,82,0.00,,,0.00,Wunderground v.1.15,2013-01-23 10:25:00,
2013-01-23 04:30:00,54.3,48.9,30.22,SSW,207,5.0,5.0,82,0.00,,,0.00,Wunderground v.1.15,2013-01-23 10:30:00,
2013-01-23 04:35:00,54.3,48.9,30.22,SSW,213,5.0,5.0,82,0.00,,,0.00,Wunderground v.1.15,2013-01-23 10:35:00,
2013-01-23 04:45:00,54.1,48.7,30.22,SSW,211,3.0,5.0,82,0.00,,,0.00,Wunderground v.1.15,2013-01-23 10:45:00,
2013-01-23 04:50:00,54.0,48.6,30.22,SSW,210,4.0,4.0,82,0.00,,,0.00,Wunderground v.1.15,2013-01-23 10:50:00,
2013-01-23 04:55:00,53.9,48.9,30.22,SSW,196,5.0,5.0,83,0.00,,,0.00,Wunderground v.1.15,2013-01-23 10:55:00,
2013-01-23 05:00:00,53.8,48.8,30.23,SSW,195,5.0,5.0,83,0.00,,,0.00,Wunderground v.1.15,2013-01-23 11:00:00,
2013-01-23 05:10:00,53.8,48.8,30.23,SSW,196,5.0,5.0,83,0.00,,,0.00,Wunderground v.1.15,2013-01-23 11:10:00,
2013-01-23 05:15:00,53.7,48.7,30.23,SSW,194,5.0,5.0,83,0.00,,,0.00,Wunderground v.1.15,2013-01-23 11:15:00,
2013-01-23 05:25:00,53.7,49.0,30.23,SSW,196,5.0,7.0,84,0.00,,,0.00,Wunderground v.1.15,2013-01-23 11:25:00,
2013-01-23 05:30:00,53.7,49.0,30.23,South,188,5.0,5.0,84,0.00,,,0.00,Wunderground v.1.15,2013-01-23 11:30:00,
2013-01-23 05:35:00,53.6,48.9,30.23,SSW,192,4.0,5.0,84,0.00,,,0.00,Wunderground v.1.15,2013-01-23 11:35:00,
2013-01-23 05:40:00,53.6,48.9,30.24,SSW,194,4.0,4.0,84,0.00,,,0.00,Wunderground v.1.15,2013-01-23 11:40:00,
2013-01-23 05:50:00,53.4,48.7,30.23,SSW,193,3.0,4.0,84,0.00,,,0.00,Wunderground v.1.15,2013-01-23 11:50:00,
2013-01-23 05:55:00,53.2,48.5,30.23,SSW,193,3.0,6.0,84,0.00,,,0.00,Wunderground v.1.15,2013-01-23 11:55:00,
2013-01-23 06:00:00,53.0,48.3,30.23,SSW,192,4.0,4.0,84,0.00,,,0.00,Wunderground v.1.15,2013-01-23 12:00:00,
2013-01-23 06:10:00,52.6,48.2,30.23,South,186,4.0,4.0,85,0.00,,,0.00,Wunderground v.1.15,2013-01-23 12:10:00,
2013-01-23 06:15:00,52.3,47.6,30.23,South,186,3.0,4.0,84,0.00,,,0.00,Wunderground v.1.15,2013-01-23 12:15:00,
2013-01-23 06:20:00,51.9,47.2,30.24,South,186,2.0,2.0,84,0.00,,,0.00,Wunderground v.1.15,2013-01-23 12:20:00,
2013-01-23 06:25:00,51.5,47.1,30.24,SSW,192,2.0,2.0,85,0.00,,,0.00,Wunderground v.1.15,2013-01-23 12:25:00,
2013-01-23 06:35:00,50.8,46.8,30.23,South,189,3.0,3.0,86,0.00,,,0.00,Wunderground v.1.15,2013-01-23 12:35:00,
2013-01-23 06:40:00,50.5,46.5,30.23,SSW,192,3.0,3.0,86,0.00,,,0.00,Wunderground v.1.15,2013-01-23 12:40:00,
2013-01-23 06:45:00,50.3,46.6,30.23,South,190,4.0,4.0,87,0.00,,,0.00,Wunderground v.1.15,2013-01-23 12:45:00,
2013-01-23 06:50:00,50.1,46.4,30.23,South,190,4.0,4.0,87,0.00,,,0.00,Wunderground v.1.15,2013-01-23 12:50:00,
2013-01-23 07:00:00,49.7,46.3,30.23,South,191,3.0,5.0,88,0.00,,,0.00,Wunderground v.1.15,2013-01-23 13:00:00,
2013-01-23 07:10:00,49.5,46.4,30.23,SSW,195,5.0,5.0,89,0.00,,,0.00,Wunderground v.1.15,2013-01-23 13:10:00,
2013-01-23 07:15:00,49.6,46.5,30.23,SSW,194,6.0,7.0,89,0.00,,,0.00,Wunderground v.1.15,2013-01-23 13:15:00,
2013-01-23 07:20:00,49.6,46.5,30.23,South,185,6.0,6.0,89,0.00,,,0.00,Wunderground v.1.15,2013-01-23 13:20:00,
2013-01-23 07:30:00,49.6,46.5,30.23,South,188,7.0,7.0,89,0.00,,,0.00,Wunderground v.1.15,2013-01-23 13:30:00,
2013-01-23 07:35:00,49.5,46.4,30.23,SSW,192,6.0,7.0,89,0.00,,,0.00,Wunderground v.1.15,2013-01-23 13:35:00,
2013-01-23 07:40:00,49.5,46.4,30.23,South,188,5.0,11.0,89,0.00,,,0.00,Wunderground v.1.15,2013-01-23 13:40:00,
2013-01-23 07:45:00,49.5,46.7,30.23,SSW,193,5.0,11.0,90,0.00,,,0.00,Wunderground v.1.15,2013-01-23 13:45:00,
2013-01-23 07:50:00,49.6,46.8,30.23,South,188,6.0,6.0,90,0.00,,,0.00,Wunderground v.1.15,2013-01-23 13:50:00,
2013-01-23 08:00:00,49.6,46.8,30.23,South,188,6.0,6.0,90,0.00,,,0.00,Wunderground v.1.15,2013-01-23 14:00:00,
2013-01-23 08:10:00,50.1,47.3,30.23,SSW,207,5.0,6.0,90,0.00,,,0.00,Wunderground v.1.15,2013-01-23 14:10:00,
2013-01-23 08:15:00,50.3,47.2,30.24,SSW,196,6.0,6.0,89,0.00,,,0.00,Wunderground v.1.15,2013-01-23 14:15:00,
2013-01-23 08:20:00,50.6,47.5,30.24,South,179,6.0,9.0,89,0.00,,,0.00,Wunderground v.1.15,2013-01-23 14:20:00,
2013-01-23 08:25:00,51.2,48.1,30.24,South,183,6.0,9.0,89,0.00,,,0.00,Wunderground v.1.15,2013-01-23 14:25:00,
2013-01-23 08:30:00,51.8,48.4,30.24,South,188,5.0,5.0,88,0.00,,,0.00,Wunderground v.1.15,2013-01-23 14:30:00,
2013-01-23 08:35:00,52.3,48.5,30.24,SSW,196,4.0,9.0,87,0.00,,,0.00,Wunderground v.1.15,2013-01-23 14:35:00,
2013-01-23 08:45:00,53.4,49.3,30.24,South,189,4.0,5.0,86,0.00,,,0.00,Wunderground v.1.15,2013-01-23 14:45:00,
2013-01-23 08:50:00,53.9,49.5,30.24,SSW,209,4.0,5.0,85,0.00,,,0.00,Wunderground v.1.15,2013-01-23 14:50:00,
2013-01-23 08:55:00,54.5,50.1,30.24,SSW,200,4.0,5.0,85,0.00,,,0.00,Wunderground v.1.15,2013-01-23 14:55:00,
2013-01-23 09:00:00,55.1,50.4,30.25,SSW,193,5.0,8.0,84,0.00,,,0.00,Wunderground v.1.15,2013-01-23 15:00:00,
2013-01-23 09:10:00,56.4,51.0,30.25,SSW,207,4.0,9.0,82,0.00,,,0.00,Wunderground v.1.15,2013-01-23 15:10:00,
2013-01-23 09:15:00,57.1,51.7,30.25,SW,214,5.0,9.0,82,0.00,,,0.00,Wunderground v.1.15,2013-01-23 15:15:00,
2013-01-23 09:25:00,58.8,52.6,30.25,SSW,212,5.0,6.0,80,0.00,,,0.00,Wunderground v.1.15,2013-01-23 15:25:00,
2013-01-23 09:30:00,59.6,53.1,30.25,SSW,200,5.0,9.0,79,0.00,,,0.00,Wunderground v.1.15,2013-01-23 15:30:00,
2013-01-23 09:35:00,60.0,53.1,30.25,SSW,197,6.0,9.0,78,0.00,,,0.00,Wunderground v.1.15,2013-01-23 15:35:00,
2013-01-23 09:40:00,60.6,53.3,30.25,SSW,201,7.0,7.0,77,0.00,,,0.00,Wunderground v.1.15,2013-01-23 15:40:00,
2013-01-23 09:45:00,61.1,53.5,30.25,SSW,196,7.0,7.0,76,0.00,,,0.00,Wunderground v.1.15,2013-01-23 15:45:00,
2013-01-23 09:55:00,62.1,53.7,30.26,SW,236,7.0,11.0,74,0.00,,,0.00,Wunderground v.1.15,2013-01-23 15:55:00,
2013-01-23 10:00:00,62.7,53.9,30.26,SSW,208,8.0,11.0,73,0.00,,,0.00,Wunderground v.1.15,2013-01-23 16:00:00,
2013-01-23 10:10:00,63.3,54.1,30.26,SW,219,8.0,17.0,72,0.00,,,0.00,Wunderground v.1.15,2013-01-23 16:10:00,
2013-01-23 10:15:00,63.9,54.3,30.26,SW,216,8.0,17.0,71,0.00,,,0.00,Wunderground v.1.15,2013-01-23 16:15:00,
2013-01-23 10:20:00,64.7,53.9,30.26,SSW,202,7.0,9.0,68,0.00,,,0.00,Wunderground v.1.15,2013-01-23 16:20:00,
2013-01-23 10:25:00,64.7,53.5,30.26,SW,215,8.0,9.0,67,0.00,,,0.00,Wunderground v.1.15,2013-01-23 16:25:00,
2013-01-23 10:30:00,64.7,53.5,30.26,SW,215,11.0,11.0,67,0.00,,,0.00,Wunderground v.1.15,2013-01-23 16:30:00,
2013-01-23 10:40:00,65.4,53.3,30.26,SSW,205,10.0,10.0,65,0.00,,,0.00,Wunderground v.1.15,2013-01-23 16:40:00,
2013-01-23 10:45:00,65.7,53.6,30.25,SSW,193,11.0,11.0,65,0.00,,,0.00,Wunderground v.1.15,2013-01-23 16:45:00,
2013-01-23 10:50:00,65.7,53.6,30.25,SW,231,10.0,10.0,65,0.00,,,0.00,Wunderground v.1.15,2013-01-23 16:50:00,
2013-01-23 10:55:00,66.4,53.8,30.25,SW,225,9.0,14.0,64,0.00,,,0.00,Wunderground v.1.15,2013-01-23 16:55:00,
2013-01-23 11:00:00,66.4,53.4,30.25,SW,215,10.0,10.0,63,0.00,,,0.00,Wunderground v.1.15,2013-01-23 17:00:00,
2013-01-23 11:10:00,66.6,53.6,30.25,South,190,10.0,11.0,63,0.00,,,0.00,Wunderground v.1.15,2013-01-23 17:10:00,
2013-01-23 11:15:00,66.9,53.9,30.25,SSW,213,10.0,11.0,63,0.00,,,0.00,Wunderground v.1.15,2013-01-23 17:15:00,
2013-01-23 11:25:00,67.4,53.9,30.24,SSW,207,10.0,12.0,62,0.00,,,0.00,Wunderground v.1.15,2013-01-23 17:25:00,
2013-01-23 11:30:00,67.5,54.0,30.24,SSW,211,10.0,12.0,62,0.00,,,0.00,Wunderground v.1.15,2013-01-23 17:30:00,
2013-01-23 11:35:00,67.6,54.1,30.24,SW,220,11.0,12.0,62,0.00,,,0.00,Wunderground v.1.15,2013-01-23 17:35:00,
2013-01-23 11:40:00,67.9,54.4,30.23,SSW,207,9.0,11.0,62,0.00,,,0.00,Wunderground v.1.15,2013-01-23 17:40:00,
2013-01-23 11:50:00,68.3,54.8,30.23,South,191,9.0,9.0,62,0.00,,,0.00,Wunderground v.1.15,2013-01-23 17:50:00,
2013-01-23 11:55:00,68.5,54.5,30.23,SSW,204,9.0,12.0,61,0.00,,,0.00,Wunderground v.1.15,2013-01-23 17:55:00,
2013-01-23 12:00:00,69.3,55.3,30.23,SSW,196,8.0,8.0,61,0.00,,,0.00,Wunderground v.1.15,2013-01-23 18:00:00,
2013-01-23 12:10:00,69.4,54.9,30.22,SW,223,8.0,8.0,60,0.00,,,0.00,Wunderground v.1.15,2013-01-23 18:10:00,
2013-01-23 12:15:00,69.8,55.3,30.22,South,181,8.0,8.0,60,0.00,,,0.00,Wunderground v.1.15,2013-01-23 18:15:00,
2013-01-23 12:20:00,70.1,55.1,30.21,South,190,7.0,7.0,59,0.00,,,0.00,Wunderground v.1.15,2013-01-23 18:20:00,
2013-01-23 12:25:00,70.0,55.0,30.21,SSW,213,7.0,9.0,59,0.00,,,0.00,Wunderground v.1.15,2013-01-23 18:25:00,
2013-01-23 12:35:00,70.6,56.0,30.20,South,179,8.0,9.0,60,0.00,,,0.00,Wunderground v.1.15,2013-01-23 18:35:00,
2013-01-23 12:40:00,70.7,55.2,30.19,South,191,7.0,7.0,58,0.00,,,0.00,Wunderground v.1.15,2013-01-23 18:40:00,
2013-01-23 12:45:00,71.0,55.5,30.19,SSW,205,8.0,8.0,58,0.00,,,0.00,Wunderground v.1.15,2013-01-23 18:45:00,
2013-01-23 12:50:00,71.3,55.8,30.19,SSW,209,8.0,8.0,58,0.00,,,0.00,Wunderground v.1.15,2013-01-23 18:50:00,
2013-01-23 12:55:00,72.0,56.4,30.19,SSW,192,6.0,8.0,58,0.00,,,0.00,Wunderground v.1.15,2013-01-23 18:55:00,
2013-01-23 13:00:00,72.8,55.7,30.19,SSW,195,5.0,5.0,55,0.00,,,0.00,Wunderground v.1.15,2013-01-23 19:00:00,
2013-01-23 13:10:00,73.3,56.2,30.19,WSW,239,6.0,6.0,55,0.00,,,0.00,Wunderground v.1.15,2013-01-23 19:10:00,
2013-01-23 13:20:00,73.7,56.0,30.18,SSW,207,6.0,6.0,54,0.00,,,0.00,Wunderground v.1.15,2013-01-23 19:20:00,
2013-01-23 13:25:00,73.6,55.9,30.18,South,182,7.0,11.0,54,0.00,,,0.00,Wunderground v.1.15,2013-01-23 19:25:00,
2013-01-23 13:30:00,73.4,55.7,30.18,SSW,202,7.0,7.0,54,0.00,,,0.00,Wunderground v.1.15,2013-01-23 19:30:00,
2013-01-23 13:35:00,73.6,55.9,30.17,SSE,167,7.0,7.0,54,0.00,,,0.00,Wunderground v.1.15,2013-01-23 19:35:00,
2013-01-23 13:40:00,74.1,55.9,30.17,SSW,209,7.0,7.0,53,0.00,,,0.00,Wunderground v.1.15,2013-01-23 19:40:00,
2013-01-23 13:50:00,74.4,56.2,30.16,SSW,207,7.0,7.0,53,0.00,,,0.00,Wunderground v.1.15,2013-01-23 19:50:00,
2013-01-23 13:55:00,74.5,56.8,30.16,SSW,193,7.0,9.0,54,0.00,,,0.00,Wunderground v.1.15,2013-01-23 19:55:00,
2013-01-23 14:00:00,74.7,56.4,30.16,SSE,167,7.0,7.0,53,0.00,,,0.00,Wunderground v.1.15,2013-01-23 20:00:00,
2013-01-23 14:10:00,74.9,56.6,30.16,South,189,8.0,9.0,53,0.00,,,0.00,Wunderground v.1.15,2013-01-23 20:10:00,
2013-01-23 14:15:00,74.4,56.7,30.16,SSW,196,8.0,9.0,54,0.00,,,0.00,Wunderground v.1.15,2013-01-23 20:15:00,
2013-01-23 14:20:00,73.9,56.2,30.16,South,187,8.0,11.0,54,0.00,,,0.00,Wunderground v.1.15,2013-01-23 20:20:00,
2013-01-23 14:30:00,74.0,56.3,30.15,South,181,8.0,13.0,54,0.00,,,0.00,Wunderground v.1.15,2013-01-23 20:30:00,
2013-01-23 14:35:00,74.0,56.3,30.15,South,171,9.0,13.0,54,0.00,,,0.00,Wunderground v.1.15,2013-01-23 20:35:00,
2013-01-23 14:40:00,74.7,56.9,30.15,South,190,9.0,9.0,54,0.00,,,0.00,Wunderground v.1.15,2013-01-23 20:40:00,
2013-01-23 14:45:00,74.5,56.2,30.14,South,174,8.0,9.0,53,0.00,,,0.00,Wunderground v.1.15,2013-01-23 20:45:00,
2013-01-23 14:55:00,75.4,56.0,30.14,SSE,159,7.0,12.0,51,0.00,,,0.00,Wunderground v.1.15,2013-01-23 20:55:00,
2013-01-23 15:00:00,74.9,56.1,30.14,South,173,9.0,14.0,52,0.00,,,0.00,Wunderground v.1.15,2013-01-23 21:00:00,
2013-01-23 15:10:00,74.9,56.1,30.14,SSE,167,8.0,8.0,52,0.00,,,0.00,Wunderground v.1.15,2013-01-23 21:10:00,
2013-01-23 15:15:00,75.0,56.2,30.14,South,187,8.0,8.0,52,0.00,,,0.00,Wunderground v.1.15,2013-01-23 21:15:00,
2013-01-23 15:20:00,75.0,56.2,30.14,SW,215,8.0,13.0,52,0.00,,,0.00,Wunderground v.1.15,2013-01-23 21:20:00,
2013-01-23 15:25:00,75.1,56.3,30.14,SSW,200,8.0,13.0,52,0.00,,,0.00,Wunderground v.1.15,2013-01-23 21:25:00,
2013-01-23 15:35:00,74.9,55.6,30.14,South,187,7.0,11.0,51,0.00,,,0.00,Wunderground v.1.15,2013-01-23 21:35:00,
2013-01-23 15:40:00,74.8,55.5,30.14,South,184,8.0,9.0,51,0.00,,,0.00,Wunderground v.1.15,2013-01-23 21:40:00,
2013-01-23 15:45:00,74.7,55.4,30.14,South,186,8.0,9.0,51,0.00,,,0.00,Wunderground v.1.15,2013-01-23 21:45:00,
2013-01-23 15:50:00,74.6,55.3,30.13,SSW,196,8.0,12.0,51,0.00,,,0.00,Wunderground v.1.15,2013-01-23 21:50:00,
2013-01-23 15:55:00,74.5,55.2,30.14,SSW,205,8.0,12.0,51,0.00,,,0.00,Wunderground v.1.15,2013-01-23 21:55:00,
2013-01-23 16:00:00,74.4,55.1,30.13,SSW,208,7.0,7.0,51,0.00,,,0.00,Wunderground v.1.15,2013-01-23 22:00:00,
2013-01-23 16:10:00,74.0,54.7,30.13,SSW,192,9.0,9.0,51,0.00,,,0.00,Wunderground v.1.15,2013-01-23 22:10:00,
2013-01-23 16:20:00,74.2,55.4,30.13,SSW,196,7.0,9.0,52,0.00,,,0.00,Wunderground v.1.15,2013-01-23 22:20:00,
2013-01-23 16:25:00,74.1,55.3,30.13,South,179,8.0,9.0,52,0.00,,,0.00,Wunderground v.1.15,2013-01-23 22:25:00,
2013-01-23 16:30:00,73.7,55.5,30.13,South,178,9.0,10.0,53,0.00,,,0.00,Wunderground v.1.15,2013-01-23 22:30:00,
2013-01-23 16:35:00,73.5,55.3,30.13,South,185,8.0,10.0,53,0.00,,,0.00,Wunderground v.1.15,2013-01-23 22:35:00,
2013-01-23 16:45:00,73.2,55.6,30.13,South,188,8.0,12.0,54,0.00,,,0.00,Wunderground v.1.15,2013-01-23 22:45:00,
2013-01-23 16:50:00,73.1,55.5,30.13,SSW,197,8.0,11.0,54,0.00,,,0.00,Wunderground v.1.15,2013-01-23 22:50:00,
2013-01-23 16:55:00,72.9,55.8,30.13,SSW,201,9.0,11.0,55,0.00,,,0.00,Wunderground v.1.15,2013-01-23 22:55:00,
2013-01-23 17:00:00,72.6,55.5,30.12,South,187,8.0,8.0,55,0.00,,,0.00,Wunderground v.1.15,2013-01-23 23:00:00,
2013-01-23 17:10:00,72.2,55.6,30.12,SSW,196,9.0,10.0,56,0.00,,,0.00,Wunderground v.1.15,2013-01-23 23:10:00,
2013-01-23 17:15:00,71.9,55.3,30.12,South,178,9.0,10.0,56,0.00,,,0.00,Wunderground v.1.15,2013-01-23 23:15:00,
2013-01-23 17:20:00,71.5,55.5,30.13,SSE,168,9.0,12.0,57,0.00,,,0.00,Wunderground v.1.15,2013-01-23 23:20:00,
2013-01-23 17:30:00,71.0,55.9,30.13,South,186,7.0,7.0,59,0.00,,,0.00,Wunderground v.1.15,2013-01-23 23:30:00,
2013-01-23 17:35:00,70.6,56.0,30.13,South,178,7.0,7.0,60,0.00,,,0.00,Wunderground v.1.15,2013-01-23 23:35:00,
2013-01-23 17:40:00,70.2,56.1,30.13,SSE,167,7.0,7.0,61,0.00,,,0.00,Wunderground v.1.15,2013-01-23 23:40:00,
2013-01-23 17:45:00,69.8,55.7,30.13,SSW,202,7.0,10.0,61,0.00,,,0.00,Wunderground v.1.15,2013-01-23 23:45:00,
2013-01-23 17:55:00,69.2,55.6,30.13,SSW,193,7.0,8.0,62,0.00,,,0.00,Wunderground v.1.15,2013-01-23 23:55:00,
2013-01-23 18:00:00,68.8,55.7,30.13,South,173,6.0,7.0,63,0.00,,,0.00,Wunderground v.1.15,2013-01-24 00:00:00,
2013-01-23 18:10:00,68.3,56.1,30.12,SE,144,7.0,7.0,65,0.00,,,0.00,Wunderground v.1.15,2013-01-24 00:10:00,
2013-01-23 18:15:00,68.0,55.8,30.12,South,175,7.0,7.0,65,0.00,,,0.00,Wunderground v.1.15,2013-01-24 00:15:00,
2013-01-23 18:20:00,67.9,56.1,30.12,South,172,7.0,7.0,66,0.00,,,0.00,Wunderground v.1.15,2013-01-24 00:20:00,
2013-01-23 18:25:00,67.6,55.8,30.12,SSE,155,8.0,8.0,66,0.00,,,0.00,Wunderground v.1.15,2013-01-24 00:25:00,
2013-01-23 18:30:00,67.3,56.0,30.12,SSE,159,7.0,9.0,67,0.00,,,0.00,Wunderground v.1.15,2013-01-24 00:30:00,
2013-01-23 18:40:00,66.9,56.0,30.11,SSW,193,7.0,7.0,68,0.00,,,0.00,Wunderground v.1.15,2013-01-24 00:40:00,
2013-01-23 18:45:00,66.7,55.8,30.11,South,181,7.0,7.0,68,0.00,,,0.00,Wunderground v.1.15,2013-01-24 00:45:00,
2013-01-23 18:50:00,66.5,55.6,30.11,South,175,7.0,11.0,68,0.00,,,0.00,Wunderground v.1.15,2013-01-24 00:50:00,
2013-01-23 18:55:00,66.3,55.8,30.11,South,178,6.0,11.0,69,0.00,,,0.00,Wunderground v.1.15,2013-01-24 00:55:00,
2013-01-23 19:00:00,65.9,55.4,30.11,SSE,163,7.0,7.0,69,0.00,,,0.00,Wunderground v.1.15,2013-01-24 01:00:00,
2013-01-23 19:10:00,65.5,55.5,30.11,South,175,7.0,7.0,70,0.00,,,0.00,Wunderground v.1.15,2013-01-24 01:10:00,
2013-01-23 19:15:00,65.3,55.7,30.11,SSW,200,7.0,7.0,71,0.00,,,0.00,Wunderground v.1.15,2013-01-24 01:15:00,
2013-01-23 19:25:00,65.0,55.4,30.11,SSW,198,8.0,10.0,71,0.00,,,0.00,Wunderground v.1.15,2013-01-24 01:25:00,
2013-01-23 19:30:00,64.9,55.7,30.10,South,179,7.0,8.0,72,0.00,,,0.00,Wunderground v.1.15,2013-01-24 01:30:00,
2013-01-23 19:35:00,64.7,55.5,30.11,SSW,192,7.0,8.0,72,0.00,,,0.00,Wunderground v.1.15,2013-01-24 01:35:00,
2013-01-23 19:40:00,64.5,55.3,30.10,SSW,192,9.0,17.0,72,0.00,,,0.00,Wunderground v.1.15,2013-01-24 01:40:00,
2013-01-23 19:50:00,64.2,55.4,30.10,SSW,195,9.0,11.0,73,0.00,,,0.00,Wunderground v.1.15,2013-01-24 01:50:00,
2013-01-23 19:55:00,64.1,55.3,30.10,SSW,194,9.0,11.0,73,0.00,,,0.00,Wunderground v.1.15,2013-01-24 01:55:00,
2013-01-23 20:00:00,64.0,55.2,30.10,SSW,193,9.0,12.0,73,0.00,,,0.00,Wunderground v.1.15,2013-01-24 02:00:00,
2013-01-23 20:10:00,63.8,55.0,30.11,SSW,192,9.0,9.0,73,0.00,,,0.00,Wunderground v.1.15,2013-01-24 02:10:00,
2013-01-23 20:15:00,63.6,55.2,30.11,South,181,8.0,14.0,74,0.00,,,0.00,Wunderground v.1.15,2013-01-24 02:15:00,
2013-01-23 20:20:00,63.6,55.2,30.11,SSW,194,9.0,9.0,74,0.00,,,0.00,Wunderground v.1.15,2013-01-24 02:20:00,
2013-01-23 20:30:00,63.7,55.3,30.11,South,180,9.0,11.0,74,0.00,,,0.00,Wunderground v.1.15,2013-01-24 02:30:00,
2013-01-23 20:35:00,63.7,55.6,30.12,South,178,9.0,11.0,75,0.00,,,0.00,Wunderground v.1.15,2013-01-24 02:35:00,
2013-01-23 20:40:00,63.6,55.5,30.12,SSW,210,8.0,11.0,75,0.00,,,0.00,Wunderground v.1.15,2013-01-24 02:40:00,
2013-01-23 20:45:00,63.7,55.6,30.12,SSW,203,8.0,11.0,75,0.00,,,0.00,Wunderground v.1.15,2013-01-24 02:45:00,
2013-01-23 20:50:00,63.8,55.7,30.12,SSW,209,9.0,9.0,75,0.00,,,0.00,Wunderground v.1.15,2013-01-24 02:50:00,
2013-01-23 21:00:00,63.9,55.8,30.13,South,171,8.0,10.0,75,0.00,,,0.00,Wunderground v.1.15,2013-01-24 03:00:00,
2013-01-23 21:10:00,63.9,56.2,30.13,South,182,8.0,9.0,76,0.00,,,0.00,Wunderground v.1.15,2013-01-24 03:10:00,
2013-01-23 21:15:00,63.9,56.2,30.13,South,183,7.0,9.0,76,0.00,,,0.00,Wunderground v.1.15,2013-01-24 03:15:00,
2013-01-23 21:20:00,63.9,56.2,30.13,SSW,196,7.0,8.0,76,0.00,,,0.00,Wunderground v.1.15,2013-01-24 03:20:00,
2013-01-23 21:25:00,63.8,56.1,30.13,SSW,194,6.0,8.0,76,0.00,,,0.00,Wunderground v.1.15,2013-01-24 03:25:00,
2013-01-23 21:30:00,63.7,56.0,30.13,SSW,199,7.0,10.0,76,0.00,,,0.00,Wunderground v.1.15,2013-01-24 03:30:00,
2013-01-23 21:35:00,63.6,55.9,30.13,SSW,210,7.0,10.0,76,0.00,,,0.00,Wunderground v.1.15,2013-01-24 03:35:00,
2013-01-23 21:45:00,63.6,55.9,30.13,South,186,8.0,9.0,76,0.00,,,0.00,Wunderground v.1.15,2013-01-24 03:45:00,
2013-01-23 21:50:00,63.5,55.8,30.13,South,184,7.0,12.0,76,0.00,,,0.00,Wunderground v.1.15,2013-01-24 03:50:00,
2013-01-23 21:55:00,63.4,56.1,30.13,SSW,195,8.0,12.0,77,0.00,,,0.00,Wunderground v.1.15,2013-01-24 03:55:00,
2013-01-23 22:00:00,63.4,56.1,30.13,South,188,9.0,9.0,77,0.00,,,0.00,Wunderground v.1.15,2013-01-24 04:00:00,
2013-01-23 22:10:00,63.2,55.9,30.13,South,186,10.0,10.0,77,0.00,,,0.00,Wunderground v.1.15,2013-01-24 04:10:00,
2013-01-23 22:15:00,63.0,55.7,30.14,South,182,9.0,10.0,77,0.00,,,0.00,Wunderground v.1.15,2013-01-24 04:15:00,
2013-01-23 22:20:00,62.9,55.9,30.14,South,169,8.0,8.0,78,0.00,,,0.00,Wunderground v.1.15,2013-01-24 04:20:00,
2013-01-23 22:30:00,62.6,55.6,30.13,South,190,8.0,8.0,78,0.00,,,0.00,Wunderground v.1.15,2013-01-24 04:30:00,
2013-01-23 22:35:00,62.5,55.5,30.13,South,182,8.0,8.0,78,0.00,,,0.00,Wunderground v.1.15,2013-01-24 04:35:00,
2013-01-23 22:40:00,62.4,55.4,30.13,South,188,7.0,9.0,78,0.00,,,0.00,Wunderground v.1.15,2013-01-24 04:40:00,
2013-01-23 22:45:00,62.3,55.7,30.13,South,179,7.0,9.0,79,0.00,,,0.00,Wunderground v.1.15,2013-01-24 04:45:00,
2013-01-23 22:55:00,62.0,55.4,30.13,South,187,8.0,9.0,79,0.00,,,0.00,Wunderground v.1.15,2013-01-24 04:55:00,
2013-01-23 23:00:00,61.9,55.3,30.13,South,191,8.0,8.0,79,0.00,,,0.00,Wunderground v.1.15,2013-01-24 05:00:00,
2013-01-23 23:05:00,61.9,55.7,30.13,SSW,202,8.0,8.0,80,0.00,,,0.00,Wunderground v.1.15,2013-01-24 05:05:00,
2013-01-23 23:10:00,61.8,55.6,30.12,South,182,7.0,8.0,80,0.00,,,0.00,Wunderground v.1.15,2013-01-24 05:10:00,
2013-01-23 23:15:00,61.8,55.6,30.13,SSW,193,7.0,9.0,80,0.00,,,0.00,Wunderground v.1.15,2013-01-24 05:15:00,
2013-01-23 23:20:00,61.7,55.5,30.13,SSW,195,8.0,9.0,80,0.00,,,0.00,Wunderground v.1.15,2013-01-24 05:20:00,
2013-01-23 23:30:00,61.5,55.3,30.13,SSW,195,7.0,7.0,80,0.00,,,0.00,Wunderground v.1.15,2013-01-24 05:30:00,
2013-01-23 23:35:00,61.3,55.1,30.13,SSW,198,6.0,7.0,80,0.00,,,0.00,Wunderground v.1.15,2013-01-24 05:35:00,
2013-01-23 23:40:00,61.2,55.0,30.13,SSW,205,7.0,9.0,80,0.00,,,0.00,Wunderground v.1.15,2013-01-24 05:40:00,
2013-01-23 23:45:00,61.1,55.2,30.13,South,188,8.0,9.0,81,0.00,,,0.00,Wunderground v.1.15,2013-01-24 05:45:00,
2013-01-23 23:50:00,60.9,55.0,30.13,South,191,8.0,8.0,81,0.00,,,0.00,Wunderground v.1.15,2013-01-24 05:50:00,